Time,TemperatureF,DewpointF,PressureIn,WindDirection,WindDirectionDegrees,WindSpeedMPH,WindSpeedGustMPH,Humidity,HourlyPrecipIn,Conditions,Clouds,dailyrainin,SolarRadiationWatts/m^2,SoftwareType,DateUTC
2013-04-17 00:02:00,72.0,67.0,-100.00,ESE,107,3.0,6.0,83,0.00,,,0.00,0.000000,,2013-04-17 05:02:00,
2013-04-17 00:22:00,72.0,67.0,-100.00,ESE,107,3.0,6.0,83,0.00,,,0.00,0.000000,,2013-04-17 05:22:00,
2013-04-17 00:32:00,72.0,67.0,-100.00,ESE,107,3.0,6.0,83,0.00,,,0.00,0.000000,,2013-04-17 05:32:00,
2013-04-17 00:43:00,72.0,67.0,-100.00,ESE,107,3.0,6.0,83,0.00,,,0.00,0.000000,,2013-04-17 05:43:00,
2013-04-17 00:52:00,72.0,67.0,-100.00,ESE,107,3.0,6.0,83,0.00,,,0.00,0.000000,,2013-04-17 05:52:00,
2013-04-17 01:02:00,72.0,68.0,-100.00,East,98,1.0,5.0,86,0.00,,,0.00,0.000000,,2013-04-17 06:02:00,
2013-04-17 01:32:00,72.0,68.0,-100.00,East,98,1.0,5.0,86,0.00,,,0.00,0.000000,,2013-04-17 06:32:00,
2013-04-17 01:42:00,72.0,68.0,-100.00,East,98,1.0,5.0,86,0.00,,,0.00,0.000000,,2013-04-17 06:42:00,
2013-04-17 01:52:00,72.0,68.0,-100.00,East,98,1.0,5.0,86,0.00,,,0.00,0.000000,,2013-04-17 06:52:00,
2013-04-17 02:02:00,72.0,68.0,-100.00,ESE,119,2.0,6.0,87,0.00,,,0.00,0.000000,,2013-04-17 07:02:00,
2013-04-17 02:32:00,72.0,68.0,-100.00,ESE,119,2.0,6.0,87,0.00,,,0.00,0.000000,,2013-04-17 07:32:00,
2013-04-17 02:42:00,72.0,68.0,-100.00,ESE,119,2.0,6.0,87,0.00,,,0.00,0.000000,,2013-04-17 07:42:00,
2013-04-17 02:52:00,72.0,68.0,-100.00,ESE,119,2.0,6.0,87,0.00,,,0.00,0.000000,,2013-04-17 07:52:00,
2013-04-17 03:02:00,72.0,68.0,-100.00,ESE,119,3.0,7.0,87,0.00,,,0.00,0.000000,,2013-04-17 08:02:00,
2013-04-17 03:22:00,72.0,68.0,-100.00,ESE,119,3.0,7.0,87,0.00,,,0.00,0.000000,,2013-04-17 08:22:00,
2013-04-17 03:33:00,72.0,68.0,-100.00,ESE,119,3.0,7.0,87,0.00,,,0.00,0.000000,,2013-04-17 08:33:00,
2013-04-17 03:42:00,72.0,68.0,-100.00,ESE,119,3.0,7.0,87,0.00,,,0.00,0.000000,,2013-04-17 08:42:00,
2013-04-17 03:52:00,72.0,68.0,-100.00,ESE,119,3.0,7.0,87,0.00,,,0.00,0.000000,,2013-04-17 08:52:00,
2013-04-17 04:02:00,73.0,69.0,-100.00,SE,140,3.0,9.0,86,0.00,,,0.00,0.000000,,2013-04-17 09:02:00,
2013-04-17 04:33:00,73.0,69.0,-100.00,SE,140,3.0,9.0,86,0.00,,,0.00,0.000000,,2013-04-17 09:33:00,
2013-04-17 04:42:00,73.0,69.0,-100.00,SE,140,3.0,9.0,86,0.00,,,0.00,0.000000,,2013-04-17 09:42:00,
2013-04-17 04:52:00,73.0,69.0,-100.00,SE,140,3.0,9.0,86,0.00,,,0.00,0.000000,,2013-04-17 09:52:00,
2013-04-17 05:02:00,73.0,69.0,-100.00,SE,137,4.0,10.0,86,0.00,,,0.00,0.000000,,2013-04-17 10:02:00,
2013-04-17 05:33:00,73.0,69.0,-100.00,SE,137,4.0,10.0,86,0.00,,,0.00,0.000000,,2013-04-17 10:33:00,
2013-04-17 05:43:00,73.0,69.0,-100.00,SE,137,4.0,10.0,86,0.00,,,0.00,0.000000,,2013-04-17 10:43:00,
2013-04-17 05:53:00,73.0,69.0,-100.00,SE,137,4.0,10.0,86,0.00,,,0.00,0.000000,,2013-04-17 10:53:00,
2013-04-17 06:02:00,73.0,69.0,-100.00,SSE,150,5.0,10.0,87,0.00,,,0.00,0.000000,,2013-04-17 11:02:00,
2013-04-17 06:22:00,73.0,69.0,-100.00,SSE,150,5.0,10.0,87,0.00,,,0.00,0.000000,,2013-04-17 11:22:00,
2013-04-17 06:32:00,73.0,69.0,-100.00,SSE,150,5.0,10.0,87,0.00,,,0.00,0.000000,,2013-04-17 11:32:00,
2013-04-17 06:42:00,73.0,69.0,-100.00,SSE,150,5.0,10.0,87,0.00,,,0.00,0.000000,,2013-04-17 11:42:00,
2013-04-17 06:52:00,73.0,69.0,-100.00,SSE,150,5.0,10.0,87,0.00,,,0.00,0.000000,,2013-04-17 11:52:00,
2013-04-17 07:02:00,72.0,69.0,-100.00,SE,128,3.0,7.0,90,0.00,,,0.00,0.000000,,2013-04-17 12:02:00,
2013-04-17 07:32:00,72.0,69.0,-100.00,SE,128,3.0,7.0,90,0.00,,,0.00,0.000000,,2013-04-17 12:32:00,
2013-04-17 07:42:00,72.0,69.0,-100.00,SE,128,3.0,7.0,90,0.00,,,0.00,0.000000,,2013-04-17 12:42:00,
2013-04-17 07:52:00,72.0,69.0,-100.00,SE,128,3.0,7.0,90,0.00,,,0.00,0.000000,,2013-04-17 12:52:00,
2013-04-17 08:02:00,73.0,69.0,-100.00,SE,141,3.0,9.0,88,0.00,,,0.00,32.000000,,2013-04-17 13:02:00,
2013-04-17 08:22:00,73.0,69.0,-100.00,SE,141,3.0,9.0,88,0.00,,,0.00,32.000000,,2013-04-17 13:22:00,
2013-04-17 08:32:00,73.0,69.0,-100.00,SE,141,3.0,9.0,88,0.00,,,0.00,32.000000,,2013-04-17 13:32:00,
2013-04-17 08:42:00,73.0,69.0,-100.00,SE,141,3.0,9.0,88,0.00,,,0.00,32.000000,,2013-04-17 13:42:00,
2013-04-17 08:52:00,73.0,69.0,-100.00,SE,141,3.0,9.0,88,0.00,,,0.00,32.000000,,2013-04-17 13:52:00,
2013-04-17 09:02:00,76.0,69.0,-100.00,SSE,156,6.0,12.0,79,0.00,,,0.00,148.000000,,2013-04-17 14:02:00,
2013-04-17 09:32:00,76.0,69.0,-100.00,SSE,156,6.0,12.0,79,0.00,,,0.00,148.000000,,2013-04-17 14:32:00,
2013-04-17 09:43:00,76.0,69.0,-100.00,SSE,156,6.0,12.0,79,0.00,,,0.00,148.000000,,2013-04-17 14:43:00,
2013-04-17 09:52:00,76.0,69.0,-100.00,SSE,156,6.0,12.0,79,0.00,,,0.00,148.000000,,2013-04-17 14:52:00,
2013-04-17 10:02:00,78.0,67.0,-100.00,SSE,166,8.0,16.0,69,0.00,,,0.00,331.000000,,2013-04-17 15:02:00,
2013-04-17 10:22:00,78.0,67.0,-100.00,SSE,166,8.0,16.0,69,0.00,,,0.00,331.000000,,2013-04-17 15:22:00,
2013-04-17 10:33:00,78.0,67.0,-100.00,SSE,166,8.0,16.0,69,0.00,,,0.00,331.000000,,2013-04-17 15:33:00,
2013-04-17 10:43:00,78.0,67.0,-100.00,SSE,166,8.0,16.0,69,0.00,,,0.00,331.000000,,2013-04-17 15:43:00,
2013-04-17 10:53:00,78.0,67.0,-100.00,SSE,166,8.0,16.0,69,0.00,,,0.00,331.000000,,2013-04-17 15:53:00,
2013-04-17 11:02:00,81.0,67.0,-100.00,SSE,162,9.0,18.0,62,0.00,,,0.00,490.000000,,2013-04-17 16:02:00,
2013-04-17 11:23:00,81.0,67.0,-100.00,SSE,162,9.0,18.0,62,0.00,,,0.00,490.000000,,2013-04-17 16:23:00,
2013-04-17 11:32:00,81.0,67.0,-100.00,SSE,162,9.0,18.0,62,0.00,,,0.00,490.000000,,2013-04-17 16:32:00,
2013-04-17 11:42:00,81.0,67.0,-100.00,SSE,162,9.0,18.0,62,0.00,,,0.00,490.000000,,2013-04-17 16:42:00,
2013-04-17 11:52:00,81.0,67.0,-100.00,SSE,162,9.0,18.0,62,0.00,,,0.00,490.000000,,2013-04-17 16:52:00,
2013-04-17 12:02:00,81.0,66.0,-100.00,SSE,165,9.0,17.0,61,0.00,,,0.00,649.000000,,2013-04-17 17:02:00,
2013-04-17 12:33:00,81.0,66.0,-100.00,SSE,165,9.0,17.0,61,0.00,,,0.00,649.000000,,2013-04-17 17:33:00,
2013-04-17 12:42:00,81.0,66.0,-100.00,SSE,165,9.0,17.0,61,0.00,,,0.00,649.000000,,2013-04-17 17:42:00,
2013-04-17 12:52:00,81.0,66.0,-100.00,SSE,165,9.0,17.0,61,0.00,,,0.00,649.000000,,2013-04-17 17:52:00,
2013-04-17 13:02:00,85.0,67.0,-100.00,SE,138,8.0,21.0,55,0.00,,,0.00,642.000000,,2013-04-17 18:02:00,
2013-04-17 13:33:00,85.0,67.0,-100.00,SE,138,8.0,21.0,55,0.00,,,0.00,642.000000,,2013-04-17 18:33:00,
2013-04-17 13:42:00,85.0,67.0,-100.00,SE,138,8.0,21.0,55,0.00,,,0.00,642.000000,,2013-04-17 18:42:00,
2013-04-17 13:52:00,85.0,67.0,-100.00,SE,138,8.0,21.0,55,0.00,,,0.00,642.000000,,2013-04-17 18:52:00,
2013-04-17 14:02:00,84.0,64.0,-100.00,SSE,148,9.0,17.0,51,0.00,,,0.00,487.000000,,2013-04-17 19:02:00,
2013-04-17 14:32:00,84.0,64.0,-100.00,SSE,148,9.0,17.0,51,0.00,,,0.00,487.000000,,2013-04-17 19:32:00,
2013-04-17 14:42:00,84.0,64.0,-100.00,SSE,148,9.0,17.0,51,0.00,,,0.00,487.000000,,2013-04-17 19:42:00,
2013-04-17 14:52:00,84.0,64.0,-100.00,SSE,148,9.0,17.0,51,0.00,,,0.00,487.000000,,2013-04-17 19:52:00,
2013-04-17 15:02:00,83.0,65.0,-100.00,SSE,152,6.0,17.0,54,0.00,,,0.00,436.000000,,2013-04-17 20:02:00,
2013-04-17 15:33:00,83.0,65.0,-100.00,SSE,152,6.0,17.0,54,0.00,,,0.00,436.000000,,2013-04-17 20:33:00,
2013-04-17 15:42:00,83.0,65.0,-100.00,SSE,152,6.0,17.0,54,0.00,,,0.00,436.000000,,2013-04-17 20:42:00,
2013-04-17 15:52:00,83.0,65.0,-100.00,SSE,152,6.0,17.0,54,0.00,,,0.00,436.000000,,2013-04-17 20:52:00,
2013-04-17 16:02:00,87.0,65.0,-100.00,SE,144,8.0,20.0,48,0.00,,,0.00,645.000000,,2013-04-17 21:02:00,
2013-04-17 16:33:00,87.0,65.0,-100.00,SE,144,8.0,20.0,48,0.00,,,0.00,645.000000,,2013-04-17 21:33:00,
2013-04-17 16:43:00,87.0,65.0,-100.00,SE,144,8.0,20.0,48,0.00,,,0.00,645.000000,,2013-04-17 21:43:00,
2013-04-17 16:53:00,87.0,65.0,-100.00,SE,144,8.0,20.0,48,0.00,,,0.00,645.000000,,2013-04-17 21:53:00,
2013-04-17 17:02:00,86.0,63.0,-100.00,SSE,161,7.0,16.0,47,0.00,,,0.00,420.000000,,2013-04-17 22:02:00,
2013-04-17 17:33:00,86.0,63.0,-100.00,SSE,161,7.0,16.0,47,0.00,,,0.00,420.000000,,2013-04-17 22:33:00,
2013-04-17 17:43:00,86.0,63.0,-100.00,SSE,161,7.0,16.0,47,0.00,,,0.00,420.000000,,2013-04-17 22:43:00,
2013-04-17 17:53:00,86.0,63.0,-100.00,SSE,161,7.0,16.0,47,0.00,,,0.00,420.000000,,2013-04-17 22:53:00,
2013-04-17 18:02:00,86.0,63.0,-100.00,SE,144,8.0,18.0,47,0.00,,,0.00,285.000000,,2013-04-17 23:02:00,
2013-04-17 18:22:00,86.0,63.0,-100.00,SE,144,8.0,18.0,47,0.00,,,0.00,285.000000,,2013-04-17 23:22:00,
2013-04-17 18:32:00,86.0,63.0,-100.00,SE,144,8.0,18.0,47,0.00,,,0.00,285.000000,,2013-04-17 23:32:00,
2013-04-17 18:42:00,86.0,63.0,-100.00,SE,144,8.0,18.0,47,0.00,,,0.00,285.000000,,2013-04-17 23:42:00,
2013-04-17 18:52:00,86.0,63.0,-100.00,SE,144,8.0,18.0,47,0.00,,,0.00,285.000000,,2013-04-17 23:52:00,
2013-04-17 19:02:00,82.0,63.0,-100.00,SSE,153,6.0,20.0,53,0.00,,,0.00,138.000000,,2013-04-18 00:02:00,
2013-04-17 19:32:00,82.0,63.0,-100.00,SSE,153,6.0,20.0,53,0.00,,,0.00,138.000000,,2013-04-18 00:32:00,
2013-04-17 19:42:00,82.0,63.0,-100.00,SSE,153,6.0,20.0,53,0.00,,,0.00,138.000000,,2013-04-18 00:42:00,
2013-04-17 19:52:00,82.0,63.0,-100.00,SSE,153,6.0,20.0,53,0.00,,,0.00,138.000000,,2013-04-18 00:52:00,
2013-04-17 20:02:00,81.0,65.0,-100.00,SE,143,6.0,16.0,58,0.00,,,0.00,21.000000,,2013-04-18 01:02:00,
2013-04-17 20:32:00,81.0,65.0,-100.00,SE,143,6.0,16.0,58,0.00,,,0.00,21.000000,,2013-04-18 01:32:00,
2013-04-17 20:42:00,81.0,65.0,-100.00,SE,143,6.0,16.0,58,0.00,,,0.00,21.000000,,2013-04-18 01:42:00,
2013-04-17 20:52:00,81.0,65.0,-100.00,SE,143,6.0,16.0,58,0.00,,,0.00,21.000000,,2013-04-18 01:52:00,
2013-04-17 21:02:00,80.0,65.0,-100.00,South,170,8.0,19.0,61,0.00,,,0.00,0.000000,,2013-04-18 02:02:00,
2013-04-17 21:22:00,80.0,65.0,-100.00,South,170,8.0,19.0,61,0.00,,,0.00,0.000000,,2013-04-18 02:22:00,
2013-04-17 21:32:00,80.0,65.0,-100.00,South,170,8.0,19.0,61,0.00,,,0.00,0.000000,,2013-04-18 02:32:00,
2013-04-17 21:42:00,80.0,65.0,-100.00,South,170,8.0,19.0,61,0.00,,,0.00,0.000000,,2013-04-18 02:42:00,
2013-04-17 21:52:00,80.0,65.0,-100.00,South,170,8.0,19.0,61,0.00,,,0.00,0.000000,,2013-04-18 02:52:00,
2013-04-17 22:02:00,79.0,68.0,-100.00,SSE,158,6.0,19.0,68,0.00,,,0.00,0.000000,,2013-04-18 03:02:00,
2013-04-17 22:33:00,79.0,68.0,-100.00,SSE,158,6.0,19.0,68,0.00,,,0.00,0.000000,,2013-04-18 03:33:00,
2013-04-17 22:43:00,79.0,68.0,-100.00,SSE,158,6.0,19.0,68,0.00,,,0.00,0.000000,,2013-04-18 03:43:00,
2013-04-17 22:53:00,79.0,68.0,-100.00,SSE,158,6.0,19.0,68,0.00,,,0.00,0.000000,,2013-04-18 03:53:00,
2013-04-17 23:02:00,78.0,68.0,-100.00,SSE,166,5.0,14.0,72,0.00,,,0.00,0.000000,,2013-04-18 04:02:00,
2013-04-17 23:33:00,78.0,68.0,-100.00,SSE,166,5.0,14.0,72,0.00,,,0.00,0.000000,,2013-04-18 04:33:00,
2013-04-17 23:43:00,78.0,68.0,-100.00,SSE,166,5.0,14.0,72,0.00,,,0.00,0.000000,,2013-04-18 04:43:00,
2013-04-17 23:53:00,78.0,68.0,-100.00,SSE,166,5.0,14.0,72,0.00,,,0.00,0.000000,,2013-04-18 04:53:00,